{"data":{"norad_id":68558,"intl_designator":"2026-070S","name":"STARLINK-37227","alt_names":[],"object_type":"PAYLOAD","status":"ACTIVE","operator":null,"country":"US","launch_date":"2026-04-02","launch_site_code":"AFETR","launch_vehicle":null,"mission":null,"orbit_class":"UNKNOWN","rcs_meters":null,"size_class":null,"mass_kg":null,"dimensions":null,"purposes":["comms"],"wikipedia_slug":null,"has_3d_model":false,"image_url":null,"decayed_at":null,"tle_current":{"epoch":"2026-09-19T06:59:34.160640Z","epoch_age_seconds":149168,"freshness":"FRESH","line1":"1 68558U 26070S   26262.29136760  .00012325  00000+0  37525-3 0  9996","line2":"2 68558  53.1583 179.2376 0001562  80.3575 279.7604 15.34404555 26252","mean_motion":15.34404555,"eccentricity":0.0001562,"inclination_deg":53.1583,"raan_deg":179.2376,"arg_perigee_deg":80.3575,"mean_anomaly_deg":279.7604,"bstar":0.00037525,"rev_number":2625,"period_min":93.847479486921,"perigee_km":461.62116468985,"apogee_km":463.7582389515,"semimajor_km":6840.8267018207,"source":"CELESTRAK","updated_at":"2026-09-20T09:00:43.936162Z"}}}